site,time,unit,value
Merrivale,2024-05-04T00:05:00+01:00,MVA,4.425000000000001
Merrivale,2024-05-04T00:10:00+01:00,MVA,4.383
Merrivale,2024-05-04T00:15:00+01:00,MVA,4.3420000000000005
Merrivale,2024-05-04T00:20:00+01:00,MVA,4.3100000000000005
Merrivale,2024-05-04T00:25:00+01:00,MVA,4.286
Merrivale,2024-05-04T00:30:00+01:00,MVA,4.263999999999999
Merrivale,2024-05-04T00:35:00+01:00,MVA,4.24
Merrivale,2024-05-04T00:40:00+01:00,MVA,4.2170000000000005
Merrivale,2024-05-04T00:45:00+01:00,MVA,4.194
Merrivale,2024-05-04T00:50:00+01:00,MVA,4.179
Merrivale,2024-05-04T00:55:00+01:00,MVA,4.164
Merrivale,2024-05-04T01:00:00+01:00,MVA,4.151
Merrivale,2024-05-04T01:05:00+01:00,MVA,4.138
Merrivale,2024-05-04T01:10:00+01:00,MVA,4.1240000000000006
Merrivale,2024-05-04T01:15:00+01:00,MVA,4.111
Merrivale,2024-05-04T01:20:00+01:00,MVA,4.0969999999999995
Merrivale,2024-05-04T01:25:00+01:00,MVA,4.083
Merrivale,2024-05-04T01:30:00+01:00,MVA,4.069
Merrivale,2024-05-04T01:35:00+01:00,MVA,4.056
Merrivale,2024-05-04T01:40:00+01:00,MVA,4.042
Merrivale,2024-05-04T01:45:00+01:00,MVA,4.029
Merrivale,2024-05-04T01:50:00+01:00,MVA,4.014
Merrivale,2024-05-04T01:55:00+01:00,MVA,4.001
Merrivale,2024-05-04T02:00:00+01:00,MVA,3.988
Merrivale,2024-05-04T02:05:00+01:00,MVA,3.974
Merrivale,2024-05-04T02:10:00+01:00,MVA,3.9610000000000003
Merrivale,2024-05-04T02:15:00+01:00,MVA,3.9459999999999997
Merrivale,2024-05-04T02:20:00+01:00,MVA,3.933
Merrivale,2024-05-04T02:25:00+01:00,MVA,3.919
Merrivale,2024-05-04T02:30:00+01:00,MVA,3.9059999999999997
Merrivale,2024-05-04T02:35:00+01:00,MVA,3.892
Merrivale,2024-05-04T02:40:00+01:00,MVA,3.878
Merrivale,2024-05-04T02:45:00+01:00,MVA,3.865
Merrivale,2024-05-04T02:50:00+01:00,MVA,3.851
Merrivale,2024-05-04T02:55:00+01:00,MVA,3.838
Merrivale,2024-05-04T03:00:00+01:00,MVA,3.824
Merrivale,2024-05-04T03:05:00+01:00,MVA,3.8099999999999996
Merrivale,2024-05-04T03:10:00+01:00,MVA,3.7960000000000003
Merrivale,2024-05-04T03:15:00+01:00,MVA,3.783
Merrivale,2024-05-04T03:20:00+01:00,MVA,3.7800000000000002
Merrivale,2024-05-04T03:25:00+01:00,MVA,3.782
Merrivale,2024-05-04T03:30:00+01:00,MVA,3.783
Merrivale,2024-05-04T03:35:00+01:00,MVA,3.785
Merrivale,2024-05-04T03:40:00+01:00,MVA,3.786
Merrivale,2024-05-04T03:45:00+01:00,MVA,3.7880000000000003
Merrivale,2024-05-04T03:50:00+01:00,MVA,3.79
Merrivale,2024-05-04T03:55:00+01:00,MVA,3.7910000000000004
Merrivale,2024-05-04T04:00:00+01:00,MVA,3.793
Merrivale,2024-05-04T04:05:00+01:00,MVA,3.795
Merrivale,2024-05-04T04:10:00+01:00,MVA,3.807
Merrivale,2024-05-04T04:15:00+01:00,MVA,3.8280000000000003
Merrivale,2024-05-04T04:20:00+01:00,MVA,3.8499999999999996
Merrivale,2024-05-04T04:25:00+01:00,MVA,3.872
Merrivale,2024-05-04T04:30:00+01:00,MVA,3.893
Merrivale,2024-05-04T04:35:00+01:00,MVA,3.915
Merrivale,2024-05-04T04:40:00+01:00,MVA,3.935
Merrivale,2024-05-04T04:45:00+01:00,MVA,3.957
Merrivale,2024-05-04T04:50:00+01:00,MVA,3.979
Merrivale,2024-05-04T04:55:00+01:00,MVA,4.0
Merrivale,2024-05-04T05:00:00+01:00,MVA,4.022
Merrivale,2024-05-04T05:05:00+01:00,MVA,4.043
Merrivale,2024-05-04T05:10:00+01:00,MVA,4.064
Merrivale,2024-05-04T05:15:00+01:00,MVA,4.085
Merrivale,2024-05-04T05:20:00+01:00,MVA,4.106999999999999
Merrivale,2024-05-04T05:25:00+01:00,MVA,4.129
Merrivale,2024-05-04T05:30:00+01:00,MVA,4.15
Merrivale,2024-05-04T05:35:00+01:00,MVA,4.172
Merrivale,2024-05-04T05:40:00+01:00,MVA,4.192
Merrivale,2024-05-04T05:45:00+01:00,MVA,4.213
Merrivale,2024-05-04T05:50:00+01:00,MVA,4.231999999999999
Merrivale,2024-05-04T05:55:00+01:00,MVA,4.25
Merrivale,2024-05-04T06:00:00+01:00,MVA,4.268
Merrivale,2024-05-04T06:05:00+01:00,MVA,4.286
Merrivale,2024-05-04T06:10:00+01:00,MVA,4.304
Merrivale,2024-05-04T06:15:00+01:00,MVA,4.322
Merrivale,2024-05-04T06:20:00+01:00,MVA,4.345000000000001
Merrivale,2024-05-04T06:25:00+01:00,MVA,4.369
Merrivale,2024-05-04T06:30:00+01:00,MVA,4.394
Merrivale,2024-05-04T06:35:00+01:00,MVA,4.4190000000000005
Merrivale,2024-05-04T06:40:00+01:00,MVA,4.443
Merrivale,2024-05-04T06:45:00+01:00,MVA,4.468
Merrivale,2024-05-04T06:50:00+01:00,MVA,4.496
Merrivale,2024-05-04T06:55:00+01:00,MVA,4.543
Merrivale,2024-05-04T07:00:00+01:00,MVA,4.592
Merrivale,2024-05-04T07:05:00+01:00,MVA,4.641
Merrivale,2024-05-04T07:10:00+01:00,MVA,4.7
Merrivale,2024-05-04T07:15:00+01:00,MVA,4.771
Merrivale,2024-05-04T07:20:00+01:00,MVA,4.843999999999999
Merrivale,2024-05-04T07:25:00+01:00,MVA,4.916
Merrivale,2024-05-04T07:30:00+01:00,MVA,4.9879999999999995
Merrivale,2024-05-04T07:35:00+01:00,MVA,5.057
Merrivale,2024-05-04T07:40:00+01:00,MVA,5.15
Merrivale,2024-05-04T07:45:00+01:00,MVA,5.402
Merrivale,2024-05-04T07:50:00+01:00,MVA,5.531000000000001
Merrivale,2024-05-04T07:55:00+01:00,MVA,5.63
Merrivale,2024-05-04T08:00:00+01:00,MVA,5.73
Merrivale,2024-05-04T08:05:00+01:00,MVA,5.807
Merrivale,2024-05-04T08:10:00+01:00,MVA,5.776
Merrivale,2024-05-04T08:15:00+01:00,MVA,5.681
Merrivale,2024-05-04T08:20:00+01:00,MVA,5.646
Merrivale,2024-05-04T08:25:00+01:00,MVA,5.615
Merrivale,2024-05-04T08:30:00+01:00,MVA,5.583
Merrivale,2024-05-04T08:35:00+01:00,MVA,5.553
Merrivale,2024-05-04T08:40:00+01:00,MVA,5.522
Merrivale,2024-05-04T08:45:00+01:00,MVA,5.49
Merrivale,2024-05-04T08:50:00+01:00,MVA,5.459
Merrivale,2024-05-04T08:55:00+01:00,MVA,5.428
Merrivale,2024-05-04T09:00:00+01:00,MVA,5.396
Merrivale,2024-05-04T09:05:00+01:00,MVA,5.365
Merrivale,2024-05-04T09:10:00+01:00,MVA,5.334
Merrivale,2024-05-04T09:15:00+01:00,MVA,5.302
Merrivale,2024-05-04T09:20:00+01:00,MVA,5.481999999999999
Merrivale,2024-05-04T09:25:00+01:00,MVA,5.486
Merrivale,2024-05-04T09:30:00+01:00,MVA,5.438
Merrivale,2024-05-04T09:35:00+01:00,MVA,5.388999999999999
Merrivale,2024-05-04T09:40:00+01:00,MVA,5.34
Merrivale,2024-05-04T09:45:00+01:00,MVA,5.291
Merrivale,2024-05-04T09:50:00+01:00,MVA,5.243
Merrivale,2024-05-04T09:55:00+01:00,MVA,5.194
Merrivale,2024-05-04T10:00:00+01:00,MVA,5.145
Merrivale,2024-05-04T10:05:00+01:00,MVA,5.175
Merrivale,2024-05-04T10:10:00+01:00,MVA,5.245
Merrivale,2024-05-04T10:15:00+01:00,MVA,5.102
Merrivale,2024-05-04T10:20:00+01:00,MVA,5.096
Merrivale,2024-05-04T10:25:00+01:00,MVA,5.3100000000000005
Merrivale,2024-05-04T10:30:00+01:00,MVA,5.42
Merrivale,2024-05-04T10:35:00+01:00,MVA,5.179
Merrivale,2024-05-04T10:40:00+01:00,MVA,5.4670000000000005
Merrivale,2024-05-04T10:45:00+01:00,MVA,5.4
Merrivale,2024-05-04T10:50:00+01:00,MVA,5.247
Merrivale,2024-05-04T10:55:00+01:00,MVA,5.093999999999999
Merrivale,2024-05-04T11:00:00+01:00,MVA,5.074
Merrivale,2024-05-04T11:05:00+01:00,MVA,5.164
Merrivale,2024-05-04T11:10:00+01:00,MVA,5.0
Merrivale,2024-05-04T11:15:00+01:00,MVA,4.833
Merrivale,2024-05-04T11:20:00+01:00,MVA,4.736000000000001
Merrivale,2024-05-04T11:25:00+01:00,MVA,4.641
Merrivale,2024-05-04T11:30:00+01:00,MVA,4.596
Merrivale,2024-05-04T11:35:00+01:00,MVA,4.634
Merrivale,2024-05-04T11:40:00+01:00,MVA,4.709
Merrivale,2024-05-04T11:45:00+01:00,MVA,4.95
Merrivale,2024-05-04T11:50:00+01:00,MVA,4.846
Merrivale,2024-05-04T11:55:00+01:00,MVA,4.633
Merrivale,2024-05-04T12:00:00+01:00,MVA,4.758
Merrivale,2024-05-04T12:05:00+01:00,MVA,5.1080000000000005
Merrivale,2024-05-04T12:10:00+01:00,MVA,5.246
Merrivale,2024-05-04T12:15:00+01:00,MVA,5.383
Merrivale,2024-05-04T12:20:00+01:00,MVA,5.507
Merrivale,2024-05-04T12:25:00+01:00,MVA,5.343
Merrivale,2024-05-04T12:30:00+01:00,MVA,5.175000000000001
Merrivale,2024-05-04T12:35:00+01:00,MVA,5.014
Merrivale,2024-05-04T12:40:00+01:00,MVA,4.66
Merrivale,2024-05-04T12:45:00+01:00,MVA,4.945
Merrivale,2024-05-04T12:50:00+01:00,MVA,5.376
Merrivale,2024-05-04T12:55:00+01:00,MVA,4.7379999999999995
Merrivale,2024-05-04T13:00:00+01:00,MVA,4.239000000000001
Merrivale,2024-05-04T13:05:00+01:00,MVA,4.002000000000001
Merrivale,2024-05-04T13:10:00+01:00,MVA,3.999
Merrivale,2024-05-04T13:15:00+01:00,MVA,4.314
Merrivale,2024-05-04T13:20:00+01:00,MVA,4.288
Merrivale,2024-05-04T13:25:00+01:00,MVA,4.122
Merrivale,2024-05-04T13:30:00+01:00,MVA,4.198
Merrivale,2024-05-04T13:35:00+01:00,MVA,4.259
Merrivale,2024-05-04T13:40:00+01:00,MVA,4.513
Merrivale,2024-05-04T13:45:00+01:00,MVA,4.779999999999999
Merrivale,2024-05-04T13:50:00+01:00,MVA,4.922000000000001
Merrivale,2024-05-04T13:55:00+01:00,MVA,4.431
Merrivale,2024-05-04T14:00:00+01:00,MVA,4.18
Merrivale,2024-05-04T14:05:00+01:00,MVA,4.0440000000000005
Merrivale,2024-05-04T14:10:00+01:00,MVA,4.122999999999999
Merrivale,2024-05-04T14:15:00+01:00,MVA,4.2219999999999995
Merrivale,2024-05-04T14:20:00+01:00,MVA,4.321
Merrivale,2024-05-04T14:25:00+01:00,MVA,4.52
Merrivale,2024-05-04T14:30:00+01:00,MVA,4.427
Merrivale,2024-05-04T14:35:00+01:00,MVA,4.361000000000001
Merrivale,2024-05-04T14:40:00+01:00,MVA,4.183
Merrivale,2024-05-04T14:45:00+01:00,MVA,3.965
Merrivale,2024-05-04T14:50:00+01:00,MVA,4.0360000000000005
Merrivale,2024-05-04T14:55:00+01:00,MVA,4.32
Merrivale,2024-05-04T15:00:00+01:00,MVA,4.180999999999999
Merrivale,2024-05-04T15:05:00+01:00,MVA,3.9639999999999995
Merrivale,2024-05-04T15:10:00+01:00,MVA,4.436
Merrivale,2024-05-04T15:15:00+01:00,MVA,4.791
Merrivale,2024-05-04T15:20:00+01:00,MVA,4.45
Merrivale,2024-05-04T15:25:00+01:00,MVA,4.359
Merrivale,2024-05-04T15:30:00+01:00,MVA,4.3420000000000005
Merrivale,2024-05-04T15:35:00+01:00,MVA,4.3260000000000005
Merrivale,2024-05-04T15:40:00+01:00,MVA,4.3100000000000005
Merrivale,2024-05-04T15:45:00+01:00,MVA,4.2940000000000005
Merrivale,2024-05-04T15:50:00+01:00,MVA,4.446999999999999
Merrivale,2024-05-04T15:55:00+01:00,MVA,4.621
Merrivale,2024-05-04T16:00:00+01:00,MVA,4.693
Merrivale,2024-05-04T16:05:00+01:00,MVA,4.766
Merrivale,2024-05-04T16:10:00+01:00,MVA,5.181
Merrivale,2024-05-04T16:15:00+01:00,MVA,5.131
Merrivale,2024-05-04T16:20:00+01:00,MVA,5.067
Merrivale,2024-05-04T16:25:00+01:00,MVA,5.083
Merrivale,2024-05-04T16:30:00+01:00,MVA,4.876
Merrivale,2024-05-04T16:35:00+01:00,MVA,5.6419999999999995
Merrivale,2024-05-04T16:40:00+01:00,MVA,5.625
Merrivale,2024-05-04T16:45:00+01:00,MVA,5.414
Merrivale,2024-05-04T16:50:00+01:00,MVA,5.27
Merrivale,2024-05-04T16:55:00+01:00,MVA,5.248
Merrivale,2024-05-04T17:00:00+01:00,MVA,5.345000000000001
Merrivale,2024-05-04T17:05:00+01:00,MVA,5.4670000000000005
Merrivale,2024-05-04T17:10:00+01:00,MVA,5.66
Merrivale,2024-05-04T17:15:00+01:00,MVA,5.814
Merrivale,2024-05-04T17:20:00+01:00,MVA,5.9670000000000005
Merrivale,2024-05-04T17:25:00+01:00,MVA,6.055
Merrivale,2024-05-04T17:30:00+01:00,MVA,5.8740000000000006
Merrivale,2024-05-04T17:35:00+01:00,MVA,5.709
Merrivale,2024-05-04T17:40:00+01:00,MVA,5.899
Merrivale,2024-05-04T17:45:00+01:00,MVA,6.145
Merrivale,2024-05-04T17:50:00+01:00,MVA,6.204000000000001
Merrivale,2024-05-04T17:55:00+01:00,MVA,6.263999999999999
Merrivale,2024-05-04T18:00:00+01:00,MVA,6.322
Merrivale,2024-05-04T18:05:00+01:00,MVA,6.382
Merrivale,2024-05-04T18:10:00+01:00,MVA,6.433999999999999
Merrivale,2024-05-04T18:15:00+01:00,MVA,6.486
Merrivale,2024-05-04T18:20:00+01:00,MVA,6.537
Merrivale,2024-05-04T18:25:00+01:00,MVA,6.433
Merrivale,2024-05-04T18:30:00+01:00,MVA,6.366
Merrivale,2024-05-04T18:35:00+01:00,MVA,6.433
Merrivale,2024-05-04T18:40:00+01:00,MVA,6.5
Merrivale,2024-05-04T18:45:00+01:00,MVA,6.566
Merrivale,2024-05-04T18:50:00+01:00,MVA,6.634
Merrivale,2024-05-04T18:55:00+01:00,MVA,6.683
Merrivale,2024-05-04T19:00:00+01:00,MVA,6.6739999999999995
Merrivale,2024-05-04T19:05:00+01:00,MVA,6.661
Merrivale,2024-05-04T19:10:00+01:00,MVA,6.622999999999999
Merrivale,2024-05-04T19:15:00+01:00,MVA,6.541
Merrivale,2024-05-04T19:20:00+01:00,MVA,6.457
Merrivale,2024-05-04T19:25:00+01:00,MVA,6.3740000000000006
Merrivale,2024-05-04T19:30:00+01:00,MVA,6.291
Merrivale,2024-05-04T19:35:00+01:00,MVA,6.237
Merrivale,2024-05-04T19:40:00+01:00,MVA,6.366
Merrivale,2024-05-04T19:45:00+01:00,MVA,6.404999999999999
Merrivale,2024-05-04T19:50:00+01:00,MVA,6.256
Merrivale,2024-05-04T19:55:00+01:00,MVA,6.1899999999999995
Merrivale,2024-05-04T20:00:00+01:00,MVA,6.2010000000000005
Merrivale,2024-05-04T20:05:00+01:00,MVA,6.213
Merrivale,2024-05-04T20:10:00+01:00,MVA,6.224
Merrivale,2024-05-04T20:15:00+01:00,MVA,6.236000000000001
Merrivale,2024-05-04T20:20:00+01:00,MVA,6.248
Merrivale,2024-05-04T20:25:00+01:00,MVA,6.258
Merrivale,2024-05-04T20:30:00+01:00,MVA,6.27
Merrivale,2024-05-04T20:35:00+01:00,MVA,6.282
Merrivale,2024-05-04T20:40:00+01:00,MVA,6.294
Merrivale,2024-05-04T20:45:00+01:00,MVA,6.304
Merrivale,2024-05-04T20:50:00+01:00,MVA,6.316
Merrivale,2024-05-04T20:55:00+01:00,MVA,6.177
Merrivale,2024-05-04T21:00:00+01:00,MVA,6.178
Merrivale,2024-05-04T21:05:00+01:00,MVA,6.27
Merrivale,2024-05-04T21:10:00+01:00,MVA,6.32
Merrivale,2024-05-04T21:15:00+01:00,MVA,6.2330000000000005
Merrivale,2024-05-04T21:20:00+01:00,MVA,6.133
Merrivale,2024-05-04T21:25:00+01:00,MVA,6.050000000000001
Merrivale,2024-05-04T21:30:00+01:00,MVA,6.011
Merrivale,2024-05-04T21:35:00+01:00,MVA,5.974
Merrivale,2024-05-04T21:40:00+01:00,MVA,5.939
Merrivale,2024-05-04T21:45:00+01:00,MVA,5.9030000000000005
Merrivale,2024-05-04T21:50:00+01:00,MVA,5.867
Merrivale,2024-05-04T21:55:00+01:00,MVA,5.83
Merrivale,2024-05-04T22:00:00+01:00,MVA,5.795
Merrivale,2024-05-04T22:05:00+01:00,MVA,5.759
Merrivale,2024-05-04T22:10:00+01:00,MVA,5.7219999999999995
Merrivale,2024-05-04T22:15:00+01:00,MVA,5.667
Merrivale,2024-05-04T22:20:00+01:00,MVA,5.592
Merrivale,2024-05-04T22:25:00+01:00,MVA,5.517
Merrivale,2024-05-04T22:30:00+01:00,MVA,5.442
Merrivale,2024-05-04T22:35:00+01:00,MVA,5.367
Merrivale,2024-05-04T22:40:00+01:00,MVA,5.291
Merrivale,2024-05-04T22:45:00+01:00,MVA,5.214
Merrivale,2024-05-04T22:50:00+01:00,MVA,5.135
Merrivale,2024-05-04T22:55:00+01:00,MVA,5.048
Merrivale,2024-05-04T23:00:00+01:00,MVA,4.9350000000000005
Merrivale,2024-05-04T23:05:00+01:00,MVA,4.82
Merrivale,2024-05-04T23:10:00+01:00,MVA,4.752
Merrivale,2024-05-04T23:15:00+01:00,MVA,4.87
Merrivale,2024-05-04T23:20:00+01:00,MVA,4.676
Merrivale,2024-05-04T23:25:00+01:00,MVA,4.632
Merrivale,2024-05-04T23:30:00+01:00,MVA,4.61
Merrivale,2024-05-04T23:35:00+01:00,MVA,4.587
Merrivale,2024-05-04T23:40:00+01:00,MVA,4.563000000000001
Merrivale,2024-05-04T23:45:00+01:00,MVA,4.54
Merrivale,2024-05-04T23:50:00+01:00,MVA,4.5169999999999995
Merrivale,2024-05-04T23:55:00+01:00,MVA,4.494
Merrivale,2024-05-05T00:00:00+01:00,MVA,4.47
